TimeEDT,TemperatureF,Dew PointF,Humidity,Sea Level PressureIn,VisibilityMPH,Wind Direction,Wind SpeedMPH,Gust SpeedMPH,PrecipitationIn,Events,Conditions,WindDirDegrees,DateUTC
12:15 AM,37.4,32.0,81,30.18,10.0,Calm,Calm,-,N/A,,Clear,0,2012-10-08 04:15:00
12:35 AM,37.4,32.0,81,30.18,10.0,Calm,Calm,-,N/A,,Scattered Clouds,0,2012-10-08 04:35:00
12:55 AM,37.4,32.0,81,30.18,10.0,Calm,Calm,-,N/A,,Scattered Clouds,0,2012-10-08 04:55:00
1:15 AM,35.6,32.0,87,30.19,10.0,Calm,Calm,-,N/A,,Clear,0,2012-10-08 05:15:00
1:35 AM,35.6,32.0,87,30.20,10.0,Calm,Calm,-,N/A,,Clear,0,2012-10-08 05:35:00
1:56 AM,33.8,32.0,93,30.20,10.0,Calm,Calm,-,N/A,,Clear,0,2012-10-08 05:56:00
2:15 AM,35.6,32.0,87,30.20,10.0,Calm,Calm,-,N/A,,Clear,0,2012-10-08 06:15:00
2:35 AM,35.6,32.0,87,30.20,10.0,Calm,Calm,-,N/A,,Clear,0,2012-10-08 06:35:00
2:56 AM,35.6,32.0,87,30.19,10.0,Calm,Calm,-,N/A,,Clear,0,2012-10-08 06:56:00
3:15 AM,35.6,30.2,81,30.19,10.0,Calm,Calm,-,N/A,,Clear,0,2012-10-08 07:15:00
3:35 AM,33.8,30.2,87,30.20,10.0,Calm,Calm,-,N/A,,Clear,0,2012-10-08 07:35:00
3:56 AM,35.6,30.2,81,30.20,10.0,Calm,Calm,-,N/A,,Clear,0,2012-10-08 07:56:00
4:15 AM,33.8,30.2,87,30.20,10.0,Calm,Calm,-,N/A,,Clear,0,2012-10-08 08:15:00
4:35 AM,32.0,30.2,93,30.20,10.0,Calm,Calm,-,N/A,,Clear,0,2012-10-08 08:35:00
4:56 AM,32.0,30.2,93,30.20,10.0,Calm,Calm,-,N/A,,Clear,0,2012-10-08 08:56:00
5:15 AM,32.0,30.2,93,30.20,10.0,Calm,Calm,-,N/A,,Clear,0,2012-10-08 09:15:00
5:35 AM,30.2,28.4,93,30.21,10.0,Calm,Calm,-,N/A,,Clear,0,2012-10-08 09:35:00
5:56 AM,30.2,28.4,93,30.21,10.0,Calm,Calm,-,N/A,,Clear,0,2012-10-08 09:56:00
6:15 AM,30.2,28.4,93,30.21,10.0,Calm,Calm,-,N/A,,Clear,0,2012-10-08 10:15:00
6:35 AM,30.2,28.4,93,30.23,10.0,Calm,Calm,-,N/A,,Clear,0,2012-10-08 10:35:00
6:56 AM,30.2,28.4,93,30.23,10.0,Calm,Calm,-,N/A,,Clear,0,2012-10-08 10:56:00
7:15 AM,30.2,28.4,93,30.23,10.0,Calm,Calm,-,N/A,,Clear,0,2012-10-08 11:15:00
7:36 AM,32.0,30.2,93,30.24,10.0,Calm,Calm,-,N/A,,Clear,0,2012-10-08 11:36:00
7:55 AM,32.0,30.2,93,30.23,10.0,Calm,Calm,-,N/A,,Clear,0,2012-10-08 11:55:00
8:15 AM,30.2,28.4,93,30.23,10.0,Calm,Calm,-,N/A,,Clear,0,2012-10-08 12:15:00
8:36 AM,32.0,30.2,93,30.24,10.0,Calm,Calm,-,N/A,,Clear,0,2012-10-08 12:36:00
8:55 AM,32.0,32.0,100,30.24,10.0,Calm,Calm,-,N/A,,Clear,0,2012-10-08 12:55:00
9:15 AM,35.6,32.0,87,30.24,10.0,Calm,Calm,-,N/A,,Clear,0,2012-10-08 13:15:00
9:36 AM,37.4,32.0,81,30.24,10.0,Calm,Calm,-,N/A,,Clear,0,2012-10-08 13:36:00
9:55 AM,39.2,32.0,75,30.25,10.0,Calm,Calm,-,N/A,,Clear,0,2012-10-08 13:55:00
10:15 AM,41.0,32.0,70,30.25,10.0,South,3.5,-,N/A,,Clear,170,2012-10-08 14:15:00
10:36 AM,41.0,32.0,70,30.25,10.0,Calm,Calm,-,N/A,,Clear,0,2012-10-08 14:36:00
10:55 AM,42.8,32.0,66,30.25,10.0,Calm,Calm,-,N/A,,Clear,0,2012-10-08 14:55:00
11:15 AM,42.8,32.0,66,30.25,10.0,Calm,Calm,-,N/A,,Clear,0,2012-10-08 15:15:00
11:36 AM,44.6,32.0,61,30.25,10.0,Calm,Calm,-,N/A,,Clear,0,2012-10-08 15:36:00
11:55 AM,44.6,32.0,61,30.26,10.0,SSW,4.6,-,N/A,,Clear,210,2012-10-08 15:55:00
12:15 PM,46.4,30.2,53,30.25,10.0,SSE,6.9,-,N/A,,Clear,160,2012-10-08 16:15:00
12:36 PM,46.4,30.2,53,30.24,10.0,South,6.9,-,N/A,,Clear,180,2012-10-08 16:36:00
12:55 PM,50.0,30.2,47,30.24,10.0,SSW,6.9,-,N/A,,Clear,200,2012-10-08 16:55:00
1:15 PM,50.0,30.2,47,30.23,10.0,South,5.8,-,N/A,,Clear,170,2012-10-08 17:15:00
1:55 PM,46.4,30.2,53,30.21,10.0,SSW,6.9,-,N/A,,Clear,210,2012-10-08 17:55:00
2:15 PM,48.2,30.2,50,30.20,10.0,WSW,5.8,-,N/A,,Clear,250,2012-10-08 18:15:00
2:36 PM,51.8,32.0,47,30.19,10.0,SSW,5.8,-,N/A,,Clear,210,2012-10-08 18:36:00
2:55 PM,51.8,30.2,44,30.18,10.0,SSW,5.8,-,N/A,,Clear,200,2012-10-08 18:55:00
3:15 PM,51.8,32.0,47,30.18,10.0,South,3.5,-,N/A,,Scattered Clouds,170,2012-10-08 19:15:00
3:35 PM,51.8,32.0,47,30.18,10.0,South,6.9,-,N/A,,Scattered Clouds,190,2012-10-08 19:35:00
3:55 PM,51.8,32.0,47,30.18,10.0,SSW,9.2,-,N/A,,Mostly Cloudy,200,2012-10-08 19:55:00
4:16 PM,51.8,32.0,47,30.17,10.0,SSW,8.1,-,N/A,,Scattered Clouds,200,2012-10-08 20:16:00
4:35 PM,51.8,32.0,47,30.17,10.0,South,8.1,-,N/A,,Scattered Clouds,190,2012-10-08 20:35:00
4:55 PM,51.8,32.0,47,30.16,10.0,SSE,9.2,-,N/A,,Scattered Clouds,160,2012-10-08 20:55:00
5:16 PM,51.8,32.0,47,30.16,10.0,SW,8.1,-,N/A,,Scattered Clouds,220,2012-10-08 21:16:00
5:35 PM,50.0,32.0,50,30.16,10.0,SSE,6.9,-,N/A,,Clear,150,2012-10-08 21:35:00
5:55 PM,51.8,32.0,47,30.15,10.0,South,5.8,-,N/A,,Clear,170,2012-10-08 21:55:00
6:16 PM,50.0,32.0,50,30.16,10.0,South,4.6,-,N/A,,Clear,170,2012-10-08 22:16:00
6:35 PM,50.0,32.0,50,30.16,10.0,SSE,5.8,-,N/A,,Clear,160,2012-10-08 22:35:00
6:55 PM,46.4,32.0,57,30.15,10.0,SE,3.5,-,N/A,,Clear,140,2012-10-08 22:55:00
7:16 PM,44.6,32.0,61,30.15,10.0,SE,3.5,-,N/A,,Clear,140,2012-10-08 23:16:00
7:35 PM,42.8,32.0,66,30.16,10.0,Calm,Calm,-,N/A,,Clear,0,2012-10-08 23:35:00
7:55 PM,41.0,32.0,70,30.16,10.0,SE,3.5,-,N/A,,Clear,140,2012-10-08 23:55:00
8:16 PM,39.2,32.0,75,30.16,10.0,SE,4.6,-,N/A,,Clear,130,2012-10-09 00:16:00
8:35 PM,41.0,32.0,70,30.16,10.0,SE,3.5,-,N/A,,Clear,140,2012-10-09 00:35:00
8:56 PM,37.4,32.0,81,30.16,10.0,SE,3.5,-,N/A,,Clear,140,2012-10-09 00:56:00
9:16 PM,41.0,32.0,70,30.17,10.0,SSE,6.9,-,N/A,,Clear,150,2012-10-09 01:16:00
9:35 PM,41.0,33.8,76,30.17,10.0,SSE,5.8,-,N/A,,Clear,150,2012-10-09 01:35:00
9:56 PM,41.0,33.8,76,30.17,10.0,SSE,4.6,-,N/A,,Clear,160,2012-10-09 01:56:00
10:15 PM,41.0,33.8,76,30.18,10.0,SSE,4.6,-,N/A,,Clear,160,2012-10-09 02:15:00
10:35 PM,41.0,33.8,76,30.17,10.0,SSE,5.8,-,N/A,,Clear,150,2012-10-09 02:35:00
10:56 PM,41.0,35.6,81,30.18,10.0,SSE,4.6,-,N/A,,Clear,160,2012-10-09 02:56:00
11:15 PM,39.2,35.6,87,30.18,10.0,South,3.5,-,N/A,,Clear,170,2012-10-09 03:15:00
11:56 PM,37.4,35.6,93,30.18,10.0,SSE,4.6,-,N/A,,Clear,160,2012-10-09 03:56:00